Regional Weather Roundup
Issued by NWS

Home | Current Version | Previous Version | Graphics & Text | Print | Product List | Glossary On
Versions: 1 2 3 4 5 6 7 8 9 10 11 12 13 14 15 16 17 18 19 20 21 22 23 24 25 26 27 28 29 30 31 32 33 34 35 36 37 38 39 40 41 42 43 44 45 46 47 48 49 50
000
ASUS43 KDMX 270507
RWRIA

WEATHER ROUNDUP FOR IOWA
NATIONAL WEATHER SERVICE DES MOINES IA
1100 PM CST WED NOV 26 2014

NOTE: "FAIR" INDICATES FEW OR NO CLOUDS BELOW 12,000 FEET WITH NO
SIGNIFICANT WEATHER AND/OR OBSTRUCTIONS TO VISIBILITY.

* - THESE STATIONS ARE NOT NWS STATIONS...THUS NOT UNDER NWS
QUALITY CONTROL.  THEY ALSO DO NOT REPORT WEATHER SUCH
AS PRECIPITATION OR FOG.

IAZ001>003-012>014-020>022-031>034-043>046-270600-
   NORTHWEST IOWA

CITY           SKY/WX    TMP DP  RH WIND       PRES   REMARKS
CARROLL *      CLOUDY    18  14  86 NW9       30.39S WCI   6
CHEROKEE *     CLOUDY    12   7  79 N8        30.43R WCI   1
DENISON *      CLOUDY    16  10  79 NW13G20   30.42R WCI   2
LE MARS *      CLOUDY    16   9  73 VRB7      30.46R WCI   6
ORANGE CITY *  CLEAR     12   3  67 N10       30.43R WCI  -1
SHELDON *      CLEAR      7   1  78 NW8       30.43R WCI  -6
SIOUX CITY     CLOUDY    17  11  77 N12       30.46R WCI   4
SPENCER        MOCLDY     9   2  73 NW9       30.42R WCI  -4
STORM LAKE *   CLOUDY    12   5  73 N12G18    30.40R WCI  -2
$$

IAZ055>058-069>071-079>083-090>094-270600-
   SOUTHWEST IOWA

CITY           SKY/WX    TMP DP  RH WIND       PRES   REMARKS
ATLANTIC *     CLOUDY    21  18  86 N20       30.40R WCI   6
AUDUBON *      CLEAR     19  14  79 NW8G16    30.39R WCI   9
CLARINDA *     CLOUDY    25  21  86 N10G18    30.42R WCI  15
COUNCIL BLFS * CLOUDY    21  19  93 N10G21    30.41R WCI  10
CRESTON *      CLOUDY    23  21  93 NW15      30.36R WCI  10
HARLAN  *      CLOUDY    21  18  86 N12       30.44S WCI   9
LAMONI         LGT SNOW  24  20  84 N13       30.35R FOG     WCI  12
RED OAK *      CLOUDY    25  21  86 NW12G18   30.41R WCI  14
SHENANDOAH *   CLOUDY    25  21  86 N13       30.43R WCI  13
$$

IAZ047>049-059>061-072>074-084-270600-
   CENTRAL IOWA

CITY           SKY/WX    TMP DP  RH WIND       PRES   REMARKS
AMES           CLOUDY    20  15  81 N15       30.36R WCI   6
ANKENY *       CLOUDY    21  18  86 NW17      30.37R WCI   7
CHARITON *     CLOUDY    25  21  86 NW13      30.32R WCI  13
DES MOINES     FLURRIES  24  19  81 NW17      30.37R WCI  11
GRINNELL*      CLOUDY    27  23  86 NW12      30.31R WCI  16
KNOXVILLE *    MIX PCPN  27  23  86 NW13G20   30.31R WCI  16
MARSHALLTOWN   CLOUDY    26  22  84 NW12      30.31R WCI  16
PELLA *        CLOUDY    28  25  91 N12       30.34R WCI  17
PERRY *        CLOUDY    21  18  86 NW16      30.39R WCI   7
$$

IAZ004>006-015-016-023>025-035-036-270600-
   NORTH CENTRAL IOWA

CITY           SKY/WX    TMP DP  RH WIND       PRES   REMARKS
ALGONA *       CLOUDY    12   7  79 NW17G25   30.39R WCI  -5
CLARION *      LGT SNOW  14  12  92 NW16      30.36R WCI  -2
ESTHERVILLE    CLOUDY     8   2  76 NW17      30.40R WCI -10
FORT DODGE *   CLOUDY    16  10  79 N7        30.38R WCI   6
MASON CITY     CLOUDY    15  11  83 NW16      30.35R WCI  -1
FOREST CITY *  CLOUDY    14  12  92 NW9G18    30.35R WCI   2
IOWA FALLS *   CLOUDY    19  16  86 NW17      30.34R WCI   4
$$

IAZ007>011-017>019-026>030-037>042-050>054-066-270600-
   NORTHEAST IOWA

CITY           SKY/WX    TMP DP  RH WIND       PRES   REMARKS
CEDAR RAPIDS   LGT SNOW  26  24  92 NW10      30.27R FOG     WCI  16
CHARLES CITY * CLOUDY    23  19  86 NW16      30.31R WCI  10
CLINTON *      PTCLDY    19  16  86 NW3       30.27S
DECORAH *      CLOUDY    25  19  80 N12       30.26R WCI  14
DUBUQUE        CLOUDY    22  20  92 NW10      30.23R FOG     WCI  11
MONTICELLO *   FLURRIES  25  23  93 NW8       30.26R WCI  16
OELWEIN *      CLOUDY    25  23  93 NW9       30.28R WCI  15
WATERLOO       CLOUDY    25  22  88 NW14      30.30R WCI  13
$$

IAZ064-065-067-068-078-270600-
   EAST CENTRAL IOWA

CITY           SKY/WX    TMP DP  RH WIND       PRES   REMARKS
DAVENPORT      PTCLDY    22  17  81 N3        30.26R
IOWA CITY      LGT SNOW  27  24  89 NW8       30.30R FOG     WCI  19
MT. PLEASANT * CLOUDY    27  27 100 N6        30.27R FOG     WCI  20
MUSCATINE *    MOCLDY    25  21  86 NW5       30.28R WCI  19
QUAD CITIES    MOCLDY    26  19  74 N3        30.26R
$$

IAZ062-063-075>077-085>089-095>099-270600-
   SOUTHEAST IOWA

CITY           SKY/WX    TMP DP  RH WIND       PRES   REMARKS
BURLINGTON     CLOUDY    26  23  88 N8        30.26R FOG     WCI  18
FAIRFIELD *    CLOUDY    27  25  93 NW10      30.29R FOG     WCI  17
FORT MADISON * MIX PCPN  27  25  93 N3        30.27R
KEOKUK *       LGT RAIN  28  27  93 N8        30.26R WCI  20
OSKALOOSA *    LGT SNOW  28  27  93 NW10      30.31R WCI  19
CENTERVILLE *  CLOUDY    28  28 100 N8        30.31R WCI  20
OTTUMWA        CLOUDY    27  24  89 NW9       30.30R FOG     WCI  18
WASHINGTON *   LGT SNOW  27  27 100 NW8       30.28R WCI  18
$$

ABBREVIATIONS USED IN REMARKS
   TC - TEMPERATURES IN CELSIUS
  WCI - WIND CHILL INDEX
   HX - HEAT INDEX
  VSB - VISIBILITY
$$




USA.gov is the U.S. government's official web portal to all federal, state and local government web resources and services.